Flag for Norway Weather past 2 weeks in Narvik, Norway

Now
39 °F

Chilly.


Feels Like: 30 °F
Forecast: 36 / 38 °F
Wind: 18 mph from South

Location: Evenes

Current Time: Mar 7, 2015 at 2:54:06 AM

Latest Report: Mar 7, 2015 at 2:20 AM


Visibility: N/A

Pressure: 29.47 "Hg

Humidity: 56%

Dew point: 25 °F

Location of NarvikLocation

Historic Weather in Narvik — Graph

°F

Narvik temperature yesterday

Maximum temperature yesterday: 39 °F (at 10:20 AM)
Minimum temperature yesterday: 32 °F (at 12:50 AM)
Average temperature yesterday: 36 °F

Past Weeks' High & Low Weather Summary

 TemperatureHumidityPressure
High43 °F (Feb 28, 11:50 AM)100% (Feb 20, 1:20 AM)30.04 "Hg (Feb 20, 1:20 AM)
Low18 °F (Feb 23, 3:50 AM)42% (Feb 28, 5:20 PM)28.80 "Hg (Feb 21, 4:20 AM)
Average34 °F77%29.30 "Hg
* Reported Feb 20 1:20 AM — Mar 7 1:20 AM, Narvik, Weather by CustomWeather, © 2015

Note: Actual official high and low records may vary slightly from our data, if they occured in-between our weather recording intervals... More about our weather records

Advertising

Narvik weather history for previous 24 hours

 ConditionsComfort  
Time TempWeatherWind HumidityBarometerVisibility
1:20 AM
Sat, Mar 7
39 °FClear.16 mph56%29.53 "Hg10 mi
12:50 AM39 °FPassing clouds.14 mph61%29.56 "HgN/A
12:20 AM37 °FPassing clouds.5 mph70%29.59 "HgN/A
11:50 PM
Fri, Mar 6
37 °FOvercast.7 mph70%29.62 "HgN/A
11:20 PM37 °FOvercast.5 mph75%29.65 "HgN/A
10:50 PM37 °FPartly cloudy.3 mph81%29.65 "HgN/A
10:20 PM37 °FPassing clouds.13 mph81%29.68 "HgN/A
9:50 PM37 °FPassing clouds.12 mph75%29.68 "HgN/A
9:20 PM37 °FPassing clouds.9 mph75%29.68 "HgN/A
8:50 PM37 °FSprinkles. Passing clouds.8 mph75%29.68 "HgN/A
7:50 PM34 °FPassing clouds.1 mph93%29.74 "HgN/A
6:50 PM34 °FPassing clouds.5 mph93%29.71 "HgN/A
5:50 PM34 °FPartly cloudy.7 mph93%29.74 "HgN/A
5:20 PM37 °FLight rain. Partly cloudy.8 mph81%29.74 "HgN/A
4:50 PM37 °FBroken clouds.15 mph81%29.74 "HgN/A
3:50 PM39 °FScattered clouds.13 mph75%29.71 "HgN/A
2:50 PM37 °FSprinkles. Partly sunny.14 mph81%29.71 "HgN/A
1:50 PM39 °FRain showers. Broken clouds.17 mph75%29.68 "HgN/A
12:50 PM39 °FScattered clouds.17 mph75%29.68 "HgN/A
11:50 AM39 °FScattered clouds.22 mph75%29.62 "HgN/A
10:50 AM39 °FBroken clouds.12 mph87%29.62 "HgN/A
10:20 AM39 °FBroken clouds.13 mph81%29.59 "HgN/A
9:50 AM37 °FRain showers. Scattered clouds.17 mph87%29.59 "HgN/A
8:50 AM37 °FBroken clouds.12 mph87%29.56 "HgN/A
7:50 AM34 °FSprinkles. Broken clouds.2 mph93%29.56 "HgN/A
6:50 AM32 °FScattered showers. Passing clouds.3 mph100%29.56 "HgN/A
5:50 AM32 °FSnow flurries. Fog.3 mph100%29.53 "Hg4 mi
2:20 AM34 °FSleet. Dense fog.9 mph93%29.53 "Hg2 mi
Weather by CustomWeather, © 2015

See weather overviewHow to use our weather pages